TimeCDT,TemperatureF,Dew PointF,Humidity,Sea Level PressureIn,VisibilityMPH,Wind Direction,Wind SpeedMPH,Gust SpeedMPH,PrecipitationIn,Events,Conditions,WindDirDegrees,DateUTC
12:15 AM,59.0,35.6,42,29.84,10.0,WNW,3.5,-,N/A,,Scattered Clouds,290,2013-05-16 05:15:00
12:35 AM,59.0,35.6,42,29.84,10.0,North,3.5,-,N/A,,Mostly Cloudy,350,2013-05-16 05:35:00
12:55 AM,55.4,35.6,47,29.84,10.0,NW,3.5,-,N/A,,Scattered Clouds,310,2013-05-16 05:55:00
1:15 AM,55.4,35.6,47,29.84,10.0,NNW,3.5,-,N/A,,Clear,340,2013-05-16 06:15:00
1:35 AM,55.4,35.6,47,29.84,10.0,NNW,3.5,-,N/A,,Clear,330,2013-05-16 06:35:00
1:55 AM,46.4,37.4,71,29.85,10.0,West,3.5,-,N/A,,Clear,270,2013-05-16 06:55:00
2:15 AM,44.6,37.4,76,29.86,10.0,West,3.5,-,N/A,,Mostly Cloudy,270,2013-05-16 07:15:00
2:35 AM,44.6,37.4,76,29.87,10.0,Calm,Calm,-,N/A,,Mostly Cloudy,0,2013-05-16 07:35:00
2:55 AM,44.6,41.0,87,29.87,10.0,Calm,Calm,-,N/A,,Scattered Clouds,0,2013-05-16 07:55:00
3:15 AM,42.8,39.2,87,29.87,10.0,NNW,3.5,-,N/A,,Scattered Clouds,340,2013-05-16 08:15:00
3:35 AM,41.0,37.4,87,29.89,10.0,Calm,Calm,-,N/A,,Clear,0,2013-05-16 08:35:00
3:55 AM,41.0,37.4,87,29.89,10.0,Calm,Calm,-,N/A,,Clear,0,2013-05-16 08:55:00
4:15 AM,41.0,37.4,87,29.90,10.0,Calm,Calm,-,N/A,,Clear,0,2013-05-16 09:15:00
4:35 AM,41.0,37.4,87,29.90,10.0,Calm,Calm,-,N/A,,Clear,0,2013-05-16 09:35:00
4:55 AM,39.2,37.4,93,29.90,10.0,Calm,Calm,-,N/A,,Clear,0,2013-05-16 09:55:00
5:15 AM,37.4,35.6,93,29.91,10.0,Calm,Calm,-,N/A,,Clear,0,2013-05-16 10:15:00
5:35 AM,37.4,35.6,93,29.91,10.0,Calm,Calm,-,N/A,,Clear,0,2013-05-16 10:35:00
5:55 AM,37.4,35.6,93,29.91,10.0,Calm,Calm,-,N/A,,Clear,0,2013-05-16 10:55:00
6:15 AM,37.4,35.6,93,29.92,10.0,Calm,Calm,-,N/A,,Clear,0,2013-05-16 11:15:00
6:35 AM,44.6,39.2,81,29.93,5.0,Calm,Calm,-,N/A,,Haze,0,2013-05-16 11:35:00
6:55 AM,51.8,37.4,58,29.94,10.0,NNE,8.1,-,N/A,,Clear,20,2013-05-16 11:55:00
7:15 AM,51.8,37.4,58,29.94,10.0,North,8.1,-,N/A,,Clear,10,2013-05-16 12:15:00
7:35 AM,53.6,37.4,54,29.95,10.0,North,6.9,-,N/A,,Clear,10,2013-05-16 12:35:00
7:55 AM,53.6,37.4,54,29.96,10.0,NNE,6.9,-,N/A,,Clear,20,2013-05-16 12:55:00
8:15 AM,55.4,37.4,51,29.97,10.0,North,5.8,-,N/A,,Clear,360,2013-05-16 13:15:00
8:35 AM,55.4,35.6,47,29.97,10.0,NNE,6.9,-,N/A,,Clear,20,2013-05-16 13:35:00
8:55 AM,57.2,35.6,44,29.98,10.0,NNE,8.1,-,N/A,,Clear,20,2013-05-16 13:55:00
9:15 AM,59.0,33.8,39,29.98,10.0,North,9.2,-,N/A,,Clear,350,2013-05-16 14:15:00
9:35 AM,59.0,33.8,39,29.99,10.0,North,10.4,-,N/A,,Clear,350,2013-05-16 14:35:00
9:55 AM,59.0,33.8,39,29.99,10.0,North,9.2,-,N/A,,Clear,10,2013-05-16 14:55:00
10:15 AM,59.0,32.0,36,29.99,10.0,North,10.4,-,N/A,,Clear,350,2013-05-16 15:15:00
10:35 AM,60.8,32.0,34,30.00,10.0,North,8.1,-,N/A,,Clear,360,2013-05-16 15:35:00
10:55 AM,60.8,32.0,34,30.01,10.0,North,9.2,-,N/A,,Clear,360,2013-05-16 15:55:00
11:15 AM,60.8,32.0,34,30.01,10.0,North,6.9,-,N/A,,Clear,360,2013-05-16 16:15:00
11:35 AM,62.6,32.0,32,30.01,10.0,NNE,9.2,-,N/A,,Clear,20,2013-05-16 16:35:00
11:55 AM,62.6,30.2,30,30.01,10.0,North,5.8,16.1,N/A,,Clear,360,2013-05-16 16:55:00
12:15 PM,64.4,28.4,26,30.01,10.0,NNE,10.4,-,N/A,,Clear,20,2013-05-16 17:15:00
12:35 PM,64.4,28.4,26,30.00,10.0,North,10.4,-,N/A,,Clear,360,2013-05-16 17:35:00
12:55 PM,64.4,28.4,26,30.00,10.0,North,4.6,-,N/A,,Clear,350,2013-05-16 17:55:00
1:15 PM,64.4,28.4,26,30.00,10.0,North,5.8,-,N/A,,Clear,350,2013-05-16 18:15:00
1:35 PM,66.2,28.4,24,29.99,10.0,North,9.2,-,N/A,,Clear,350,2013-05-16 18:35:00
2:15 PM,66.2,26.6,23,29.99,10.0,NNW,6.9,-,N/A,,Clear,340,2013-05-16 19:15:00
2:35 PM,66.2,23.0,19,29.99,10.0,North,8.1,-,N/A,,Clear,350,2013-05-16 19:35:00
2:55 PM,68.0,23.0,18,29.99,10.0,North,10.4,16.1,N/A,,Clear,10,2013-05-16 19:55:00
3:15 PM,68.0,21.2,17,30.00,10.0,North,5.8,-,N/A,,Clear,350,2013-05-16 20:15:00
3:35 PM,68.0,19.4,16,30.00,10.0,North,8.1,-,N/A,,Clear,350,2013-05-16 20:35:00
3:55 PM,68.0,19.4,16,29.99,10.0,North,9.2,-,N/A,,Clear,10,2013-05-16 20:55:00
4:15 PM,68.0,19.4,16,30.00,10.0,North,6.9,-,N/A,,Clear,360,2013-05-16 21:15:00
4:35 PM,68.0,19.4,16,30.00,10.0,NNW,10.4,-,N/A,,Clear,340,2013-05-16 21:35:00
4:55 PM,68.0,21.2,17,30.00,10.0,NNE,9.2,-,N/A,,Clear,20,2013-05-16 21:55:00
5:15 PM,68.0,21.2,17,30.01,10.0,NNW,10.4,-,N/A,,Clear,340,2013-05-16 22:15:00
5:35 PM,66.2,21.2,18,30.01,10.0,NNE,8.1,-,N/A,,Clear,20,2013-05-16 22:35:00
5:55 PM,64.4,23.0,21,30.01,10.0,North,8.1,-,N/A,,Clear,360,2013-05-16 22:55:00
6:15 PM,64.4,24.8,22,30.02,10.0,NNW,9.2,-,N/A,,Clear,340,2013-05-16 23:15:00
6:35 PM,62.6,23.0,22,30.03,10.0,North,6.9,-,N/A,,Clear,10,2013-05-16 23:35:00
6:55 PM,62.6,23.0,22,30.03,10.0,North,5.8,-,N/A,,Clear,360,2013-05-16 23:55:00
7:15 PM,60.8,23.0,23,30.03,10.0,North,8.1,-,N/A,,Clear,10,2013-05-17 00:15:00
7:35 PM,60.8,23.0,23,30.04,10.0,NNE,8.1,-,N/A,,Clear,20,2013-05-17 00:35:00
7:55 PM,59.0,24.8,27,30.04,10.0,North,6.9,-,N/A,,Clear,10,2013-05-17 00:55:00
8:15 PM,57.2,26.6,31,30.04,10.0,North,8.1,-,N/A,,Clear,10,2013-05-17 01:15:00
8:35 PM,55.4,26.6,33,30.04,10.0,North,6.9,-,N/A,,Clear,10,2013-05-17 01:35:00
8:55 PM,55.4,26.6,33,30.05,10.0,North,5.8,-,N/A,,Clear,10,2013-05-17 01:55:00
9:15 PM,53.6,26.6,35,30.07,10.0,NNE,3.5,-,N/A,,Clear,20,2013-05-17 02:15:00
9:35 PM,53.6,26.6,35,30.07,10.0,NE,3.5,-,N/A,,Clear,40,2013-05-17 02:35:00
9:55 PM,53.6,28.4,38,30.08,10.0,ESE,3.5,-,N/A,,Clear,110,2013-05-17 02:55:00
10:15 PM,51.8,32.0,47,30.09,10.0,East,4.6,-,N/A,,Clear,90,2013-05-17 03:15:00
10:35 PM,51.8,32.0,47,30.09,10.0,ESE,6.9,-,N/A,,Clear,110,2013-05-17 03:35:00
10:55 PM,51.8,32.0,47,30.09,10.0,East,4.6,-,N/A,,Clear,100,2013-05-17 03:55:00
11:15 PM,51.8,32.0,47,30.08,10.0,NE,3.5,-,N/A,,Clear,40,2013-05-17 04:15:00
11:35 PM,50.0,32.0,50,30.08,10.0,Calm,Calm,-,N/A,,Clear,0,2013-05-17 04:35:00
11:55 PM,46.4,32.0,57,30.09,10.0,Calm,Calm,-,N/A,,Clear,0,2013-05-17 04:55:00